Downstream station:
SHEF ID: PBFO2 Black Fork below Big Creek nr Pa
STATION TYPE:
PRECIP STAGE RIV-FLOW BAT-LOAD
in ft cfs volt
Ccp-Rev Ccp-Rev Ccp-Rev Ccp-Rev
(US/Central)
10/14 00:00 0.07 3.83 0 12.81
10/14 01:00 0.51 3.86 0 12.81
10/14 02:00 0.52 3.92 0 12.81
10/14 03:00 0.03 3.92 0 12.81
10/14 04:00 0.02 3.92 0 12.81
10/14 05:00 0.06 3.93 0 12.81
10/14 06:00 0.01 3.93 0 12.81
10/14 07:00 0.01 3.93 0 12.81
10/14 08:00 0.01 3.93 0 12.81
10/14 09:00 0.01 3.93 0 12.73
10/14 10:00 0.00 3.94 0 12.89
10/14 11:00 0.00 3.94 0 13.05
10/14 12:00 0.04 3.94 0 13.21
10/14 13:00 0.01 3.94 0 13.21
10/14 14:00 0.00 3.94 0 13.37
10/14 15:00 0.01 3.94 0 13.29
10/14 16:00 0.04 3.95 0 13.29
10/14 17:00 0.01 3.95 0 13.21
10/14 18:00 0.00 3.95 0 13.37
10/14 19:00 0.00 3.95 0 13.13
10/14 20:00 0.00 3.95 0 12.97
10/14 21:00 0.01 3.95 0 12.89
10/14 22:00 0.00 3.95 0 12.97
10/14 23:00 0.00 3.95 0 12.89